Find Starlink 30802

NORAD ID: 58150 Int'l Des: 2023-166 Owner: SPXS Country: US Constellation: starlink operational
LEOCIRCULAR

Live Position

Loading 3D Globe...

About Starlink 30802

Description loading...

Upcoming Passes

Passes for default location (London). Set your location on the main map for personalized predictions.

Altitude History

Loading altitude history...

Two-Line Element Set

1 58150U 23166A 26124.45288823 .00000823 00000-0 38296-4 0 9997
2 58150 53.1611 320.8145 0001069 90.5169 269.5955 15.31696780141718
Epoch: May 4, 2026 • Age: 7 hours

Current Status

Altitude 471.1 km
Velocity 7.63 km/s
Sub-Earth Point 22.61°N, 8.1°W
Launch Date Oct 29, 2023
Age 2.5 years
Type internet

Technical Details

Classification Payload
Mass 730.00 kg
Dry Mass 700.00 kg
Total Mass 730.00 kg
Length 0.30 m
Diameter 4.10 m
Span 29.00 m
Shape Box + pan
Manufacturer SPXS
Bus Type Starlink V2M
Phase Status In Orbit
Owner/State SPXS/US

Most Searched